Regional Weather Roundup
Issued by NWS Sterling, VA

Home | Current Version | Previous Version | Graphics & Text | Print | Product List | Glossary On
Versions: 1 2 3 4 5 6 7 8 9 10 11 12 13 14 15 16 17 18 19 20 21 22 23 24 25 26 27 28 29 30 31 32 33 34 35 36 37 38 39 40 41 42 43 44 45 46 47 48 49 50
000
ASUS41 KLWX 191011
RWRLWX

REGIONAL WEATHER ROUNDUP
NATIONAL WEATHER SERVICE BALTIMORE MD/WASHINGTON DC
600 AM EDT THU OCT 19 2017

Note: "FAIR" indicates few or no clouds below 12,000 feet
with no significant weather and/or obstructions to visibility.
 TC=TEMPERATURE CELSIUS

 * =Non NWS site. Station does not report precipitation (e.g. rain,
    snow, etc.), thunder, or fog.

DCZ001-MDZ009-015-VAZ040>042-051-053>054-191100-
WASHINGTON METRO

CITY           SKY/WX    TMP DP  RH WIND       PRES   REMARKS
WASHINGTON NAT CLOUDY    49  47  93 SW6       30.28S
DULLES         CLOUDY    42  41  96 CALM      30.27S
ANDREWS AFB    CLEAR     45  44  94 S3        30.27S
FT BELVOIR     PTCLDY    41  40  96 CALM      30.28S
QUANTICO       PTCLDY    47  46  97 W3        30.29S
COLLEGE PARK*  PTCLDY    41  40  97 CALM      30.28S
LEESBURG*      CLEAR     41  41 100 CALM      30.28S
MANASSAS*      PTCLDY    38  37  97 CALM      30.28S
GAITHERSBURG*  CLOUDY    42  41  96 CALM      30.27S

$$

MDZ006>007-011-014-191100-
BALTIMORE METRO

CITY           SKY/WX    TMP DP  RH WIND       PRES   REMARKS
BWI AIRPORT    PTCLDY    42  42 100 CALM      30.27S
MD SCIENCE CTR   N/A     52  46  80 MISG      30.28S
MARTIN STATE   CLEAR     45  45 100 CALM      30.29S
ANNAPOLIS      CLEAR     52  50  93 CALM      30.27S
FORT MEADE*    CLEAR     37  37 100 CALM      30.30S

$$

MDZ012-015-019>023-191100-
MARYLAND EASTERN SHORE

CITY           SKY/WX    TMP DP  RH WIND       PRES   REMARKS
OCEAN CITY     CLEAR     43  42  97 CALM      30.30S
SALISBURY      CLEAR     42  41  96 CALM      30.29S
CAMBRIDGE*     CLEAR     45  43  93 CALM      30.29S
EASTON*        CLEAR     48  46  93 CALM      30.32R

$$

MDZ017>025-191100-
SOUTHERN MARYLAND

CITY           SKY/WX    TMP DP  RH WIND       PRES   REMARKS
PATUXENT RIVER PTCLDY    50  48  93 SW5       30.28S
ST INIGOES     CLEAR     47  45  93 CALM      30.28S
LEONARDTOWN*   NOT AVBL

$$

MDZ003>005-191100-
NORTH CENTRAL MARYLAND

CITY           SKY/WX    TMP DP  RH WIND       PRES   REMARKS
FREDERICK*     PTCLDY    43  43 100 CALM      30.30R
HAGERSTOWN APT PTCLDY    44  40  85 CALM      30.26R
WESTMINSTER*   CLEAR     48  43  81 SW3       30.26S

$$

MDZ501>502-191100-
WESTERN MARYLAND

CITY           SKY/WX    TMP DP  RH WIND       PRES   REMARKS
OAKLAND*       CLEAR     50  34  53 SW8       30.23S
CUMBERLAND*    PTCLDY    39  39 100 CALM      30.30S

$$

VAZ025>031-191100-
SHENANDOAH VALLEY

CITY           SKY/WX    TMP DP  RH WIND       PRES   REMARKS
WINCHESTER*    CLEAR     41  37  87 CALM      30.26R
FRONT ROYAL*   CLEAR     43  41  93 MISG      30.25S
LURAY*         CLEAR     37  37 100 CALM      30.27S
NEW MARKET*    CLEAR     37  36  97 CALM      30.27S
STAUNTON*      CLEAR     34  32  91 CALM      30.30R
WAYNESBORO*    CLEAR     37  37  98 CALM      30.29R

$$

WVZ021-048>050-054>055-191100-
EASTERN WEST VIRGINIA PANHANDLE

CITY           SKY/WX    TMP DP  RH WIND       PRES   REMARKS
MARTINSBURG    CLEAR     38  37  97 CALM      30.25S
PETERSBURG*    CLEAR     34  33  97 CALM      30.27S

$$

VAZ036>039-050-191100-
CENTRAL FOOTHILLS

CITY           SKY/WX    TMP DP  RH WIND       PRES   REMARKS
CHARLOTTESVILL CLEAR     44  41  89 SW3       30.27R
CULPEPER*      CLEAR     37  36  94 CALM      30.28S
ORANGE*        CLEAR     36  36 100 CALM      30.27S
GORDONSVILLE*  CLEAR     38  38 100 SW3       30.27S
WARRENTON*     PTCLDY    34  32  91 CALM      30.26F

$$

VAZ055>057-191100-
NORTH AND CENTRAL PIEDMONT

CITY           SKY/WX    TMP DP  RH WIND       PRES   REMARKS
FREDERICKSBRG* MOCLDY    44  44 100 CALM      30.28R
STAFFORD*      PTCLDY    37  37 100 CALM      30.32S FOG

$$

NCZ024-NYZ072-PAZ021-071-VAZ022-071-191100-
OTHER REGIONAL OBSERVATIONS

CITY           SKY/WX    TMP DP  RH WIND       PRES   REMARKS
NEW YORK CITY  CLEAR     56  45  66 W6        30.28S
PHILADELPHIA   PTCLDY    52  48  86 S5        30.28S
PITTSBURGH     CLEAR     44  39  82 CALM      30.21R
ROANOKE        CLEAR     42  39  89 CALM      30.32S
RICHMOND       MOCLDY    46  44  93 E3        30.28F
RALEIGH        PTCLDY    42  42 100 CALM      30.30R

$$

ANZ530>537-191100-
MARINE OBSERVATIONS

STATION/POSITION TIME  TEMP    WIND        PRES
                       AIR SEA DIR/SP/G
                 (UTC) (F)     (DEG/KT/KT) (MB)
THOMAS PT LIGHT  1000   57 67  220/ 12/ 14   N/A
BALT KEY BRIDGE  0900   52     220/  5/  6 1024.9
COVE POINT       0900   57     240/ 10/ 12 1025.9
LEWISETTA        0900   54 64  210/  4/  5 1025.5
SOLOMONS ISLAND  0900   58 69  220/  7/  8 1025.0
PINEY POINT      0900          230/ 10/ 11   N/A

$$




USA.gov is the U.S. government's official web portal to all federal, state and local government web resources and services.